Regional Weather Roundup
Issued by NWS

Home | Current Version | Previous Version | Graphics & Text | Print | Product List | Glossary On
Versions: 1 2 3 4 5 6 7 8 9 10 11 12 13 14 15 16 17 18 19 20 21 22 23 24 25 26 27 28 29 30 31 32 33 34 35 36 37 38 39 40 41 42 43 44 45 46 47 48 49 50
000
ASUS43 KLOT 160608
RWRIL

ILLINOIS REGIONAL WEATHER ROUNDUP
NATIONAL WEATHER SERVICE CHICAGO/ROMEOVILLE IL
100 AM CDT WED AUG 16 2017

NOTE: "FAIR" INDICATES FEW OR NO CLOUDS BELOW 12,000 FEET WITH NO
SIGNIFICANT WEATHER AND/OR OBSTRUCTIONS TO VISIBILITY.

* THESE STATIONS ARE NOT UNDER NWS QUALITY CONTROL. THEY ALSO MAY NOT
  REPORT WEATHER SUCH AS PRECIPITATION OR FOG.

ILZ001-002-007-009-015-016-024-160700-
NORTHWEST ILLINOIS

CITY           SKY/WX    TMP DP  RH WIND       PRES   REMARKS
MOLINE         CLOUDY    71  66  84 E9        29.95F
6HR MIN TEMP:  71; 6HR MAX TEMP:  80;

STERLING*      CLEAR     63  62  97 E7        29.98
SAVANNA*       CLEAR     67  62  85 E5        29.98S
$$

ILZ003-004-008-010-011-017-018-160700-
NORTH CENTRAL ILLINOIS

CITY           SKY/WX    TMP DP  RH WIND       PRES   REMARKS
ROCKFORD       CLOUDY    66  61  84 E6        30.01S
6HR MIN TEMP:  66; 6HR MAX TEMP:  80;

FREEPORT*      CLEAR     60  59  96 E5        30.01F
ROCHELLE*      CLEAR     64  61  90 E6        30.01S
DE KALB*       PTCLDY    63  61  94 E6        30.01F
PERU*          PTCLDY    65  63  91 E9        29.99S
$$

ILZ005-006-012>014-019>023-160700-
NORTHEAST ILLINOIS

CITY           SKY/WX    TMP DP  RH WIND       PRES   REMARKS
CHICAGO-OHARE  PTCLDY    69  62  78 NE5       30.00S
6HR MIN TEMP:  69; 6HR MAX TEMP:  73;

CHICAGO-MIDWAY PTCLDY    71  64  78 E6        30.00S
6HR MIN TEMP:  70; 6HR MAX TEMP:  74;

AURORA         PTCLDY    64  62  93 NE5       30.01R
6HR MIN TEMP:  64; 6HR MAX TEMP:  76;

LANSING*       CLEAR     68  63  82 NE3       30.00S
JOLIET*        PTCLDY    67  65  93 CALM      29.99F
WAUKEGAN       PTCLDY    61  61 100 CALM      30.01R
6HR MIN TEMP:  59; 6HR MAX TEMP:  69;

DUPAGE AIRPORT PTCLDY    63  62  97 N3        30.00S
6HR MIN TEMP:  62; 6HR MAX TEMP:  73;

KANKAKEE*      CLEAR     64  64 100 NE3       30.00S
WHEELING       MOCLDY    65  64  97 CALM      30.02R
6HR MIN TEMP:  64; 6HR MAX TEMP:  71;

MORRIS*        CLEAR     64  62  93 CALM      29.98F
ROMEOVILLE*    PTCLDY    66  62  87 NE6       30.00S
NORTHERLY ISL    N/A     71  63  75 NE9         N/A
$$

LMZ740>746-160700-
SOUTHERN LAKE MICHIGAN

STATION/POSITION SKY/WX   TEMP    WIND        PRES    VSBY  WAVE
                          AIR SEA DIR/SP/G                  HT/PER
                          (F)     (DEG/KT/KT) (MB)    (MI)  (FT/S)
SOUTHERN BUOY              70 72   30/ 10/ 12 1015.8          2/ 5
WILMETTE HARBOR            71 72   50/  8/ 10   N/A           2/ 5
HARRISON CRIB              72      50/  9/ 11   N/A
CALUMET HARBOR             71      40/  6/  8 1015.5S
BURNS HARBOR               72      50/ 10/ 11 1016.3S
MICHIGAN CITY              69      70/  2/  3   N/A
MICHIGAN CITY 6N           72 74   60/  8/ 10   N/A           3/ 5
ST. JOSEPH                 71 74   70/  4/  6 1015.7          2/ 5
$$

ILZ025>027-034>036-040-047-049-050-058-095>099-160700-
WEST-CENTRAL ILLINOIS

CITY           SKY/WX    TMP DP  RH WIND       PRES   REMARKS
QUINCY         CLEAR     73  69  87 E6        29.93S
GALESBURG*     CLOUDY    72  67  83 E5        29.96S
MACOMB*        CLOUDY    68  67  97 CALM      29.96F
JACKSONVILLE*  CLEAR     68  67  94 E5        29.94S
PITTSFIELD*    CLEAR     71  69  93 E3        29.94F
$$

ILZ028>032-037-038-041>044-048-051>054-059>061-160700-
CENTRAL ILLINOIS

CITY           SKY/WX    TMP DP  RH WIND       PRES   REMARKS
PONTIAC        CLEAR     66  66  99 CALM      29.99S FOG
BLOOMINGTON    CLEAR     69  67  93 E10       29.99S
DECATUR        CLEAR     68  66  93 CALM      29.96F
PEORIA         CLOUDY    75  69  81 E7        29.95F
6HR MIN TEMP:  75; 6HR MAX TEMP:  84;

LACON*         CLOUDY    69  67  95 E7        29.96F
LINCOLN*       CLEAR     70  69  98 CALM      29.95F
SPRINGFIELD    PTCLDY    73  70  90 CALM      29.95S
6HR MIN TEMP:  73; 6HR MAX TEMP:  84;

TAYLORVILLE    CLEAR     71  69  93 S3        29.96S
6HR MIN TEMP:  70; 6HR MAX TEMP:  82;

$$

ILZ033-039-045-046-055>057-062-063-160700-
EAST-CENTRAL ILLINOIS

CITY           SKY/WX    TMP DP  RH WIND       PRES   REMARKS
CHAMPAIGN      CLEAR     70  67  90 NE5       29.98R
RANTOUL*       CLEAR     73  70  88 NE3       29.98F
MATTOON        CLEAR     74  72  93 S5        29.96S
PARIS*         CLEAR     66  66  99 CALM      29.98S
$$

ILZ079-100>102-160700-
SOUTHWEST ILLINOIS

CITY           SKY/WX    TMP DP  RH WIND       PRES   REMARKS
ALTON          PTCLDY    72  71  99 SW3       29.95R
BELLEVILLE     MOCLDY    73  70  92 S5        29.94F
CAHOKIA*       PTCLDY    76  71  85 S3        29.93S
SPARTA*        MOCLDY    74  73  95 SW3       29.95F
$$

ILZ064>066-069>071-074>076-080>082-084>086-088>090-092>094-160700-
SOUTH-CENTRAL ILLINOIS

CITY           SKY/WX    TMP DP  RH WIND       PRES   REMARKS
CARBONDALE     CLOUDY    71  71 100 CALM      29.94F
6HR MIN TEMP:  71; 6HR MAX TEMP:  82;

CAIRO*         CLEAR     70  70  99 CALM      29.93F
EFFINGHAM*     CLEAR     71  71  99 CALM      29.97F
MARION         PTCLDY    72  72 100 CALM      29.96S FOG
MT. VERNON     FOG       67  67 100 CALM      29.95F VSB 1
CENTRALIA*     CLEAR     71  71  99 CALM      29.94F
SALEM*         CLEAR     74  71  88 S3        29.95S
METROPOLIS*    PTCLDY    71  71  97 CALM      29.95F FOG
$$

ILZ067-068-072-073-078-083-087-091-160700-
SOUTHEAST ILLINOIS

CITY           SKY/WX    TMP DP  RH WIND       PRES   REMARKS
LAWRENCEVILLE  CLEAR     71  69  93 CALM      29.96F
FLORA*         CLEAR     71  69  95 CALM      29.95F
FAIRFIELD*     FOG       69  69  99 CALM      29.94F VSB 1/2
HARRISBURG*    PTCLDY    70  70  99 CALM      29.95F FOG
ROBINSON*      CLEAR     67  66  99 CALM      29.97S
CARMI*         PTCLDY    68  68 100 CALM      29.95F FOG
$$

ABBREVIATIONS USED IN REMARKS
   TC - TEMPERATURE IN CELSIUS
  WCI - WIND CHILL INDEX
   HX - HEAT INDEX
  VSB - VISIBILITY
$$





USA.gov is the U.S. government's official web portal to all federal, state and local government web resources and services.